Location: Winnipeg
(49.8830°N, 97.1670°W)
Time: 19:35:53
(UTC-06:00)

Envisat - Pass Details

Date: 10 December 2022
Orbit: 763 x 765 km, 98.2° (Epoch: 28 January)

Event Time Altitude Azimuth Distance (km) Brightness Sun altitude
Rises 16:57:34 0° 206° (SSW) 3,221 7.3 -4.9°
Reaches altitude 10° 17:00:27 10° 223° (SW) 2,300 7.0 -5.3°
Maximum altitude 17:04:08 20° 270° (W) 1,720 5.8 -5.8°
Drops below altitude 10° 17:07:50 10° 317° (NW) 2,313 5.7 -6.4°
Sets 17:10:46 0° 334° (NNW) 3,245 6.2 -6.8°
